TVF4315 EKCH-LFPO

Flight info

Callsign TVF4315
Flight time N/A
Altitude 38000
Route NEXEN T503 GIMRU DCT MICOS DCT IDOSA DCT TOLVU/N0445F370 DCT RAPOR DCT RENSA
Aircraft B738/M-SDE2E3FGHIRWXY/LB1

Departure

Time 2026-04-25 17:08
Airport Copenhagen Kastrup Airport (EKCH)

Arrival

Time N/A
Airport Paris-Orly Airport (LFPO)
Time Latitude Longitude Altitude Speed Heading
2026-04-25 16:43 55.62529 12.65837 25 ft 0 kts 359°
2026-04-25 16:59 55.62521 12.65838 23 ft 4 kts 359°
2026-04-25 16:59 55.62494 12.65838 23 ft 4 kts 359°
2026-04-25 16:59 55.62472 12.65840 24 ft 4 kts 345°
2026-04-25 16:59 55.62453 12.65862 25 ft 4 kts 293°
2026-04-25 17:00 55.62448 12.65905 23 ft 2 kts 269°
2026-04-25 17:00 55.62446 12.65937 24 ft 4 kts 315°
2026-04-25 17:00 55.62426 12.65951 25 ft 4 kts 359°
2026-04-25 17:00 55.62399 12.65952 25 ft 3 kts 359°
2026-04-25 17:01 55.62396 12.65952 24 ft 1 kts 359°
2026-04-25 17:02 55.62403 12.65951 26 ft 4 kts 358°
2026-04-25 17:02 55.62443 12.65904 26 ft 11 kts 277°
2026-04-25 17:03 55.62445 12.65729 23 ft 18 kts 269°
2026-04-25 17:03 55.62442 12.65484 23 ft 22 kts 269°
2026-04-25 17:03 55.62433 12.65233 23 ft 17 kts 240°
2026-04-25 17:03 55.62332 12.65204 23 ft 15 kts 180°
2026-04-25 17:04 55.62281 12.65075 23 ft 15 kts 285°
2026-04-25 17:04 55.62317 12.64915 23 ft 14 kts 248°
2026-04-25 17:04 55.62241 12.64810 27 ft 13 kts 216°
2026-04-25 17:04 55.62219 12.64781 24 ft 0 kts 216°
2026-04-25 17:05 55.62178 12.64730 24 ft 7 kts 214°
2026-04-25 17:05 55.62117 12.64658 24 ft 15 kts 213°
2026-04-25 17:06 55.62003 12.64527 23 ft 23 kts 218°
2026-04-25 17:06 55.61939 12.64265 25 ft 23 kts 258°
2026-04-25 17:06 55.61849 12.64073 23 ft 22 kts 182°
2026-04-25 17:06 55.61696 12.64088 28 ft 21 kts 174°
2026-04-25 17:07 55.61631 12.64077 26 ft 7 kts 216°
2026-04-25 17:07 55.61625 12.64068 26 ft 0 kts 220°
2026-04-25 17:07 55.61500 12.63875 27 ft 60 kts 221°
2026-04-25 17:08 55.61006 12.63112 26 ft 126 kts 223°
2026-04-25 17:08 55.60213 12.61953 211 ft 162 kts 225°
2026-04-25 17:08 55.59327 12.60569 757 ft 176 kts 229°
2026-04-25 17:08 55.58416 12.59131 1567 ft 179 kts 232°
2026-04-25 17:09 55.57426 12.57609 2021 ft 202 kts 232°
2026-04-25 17:09 55.56278 12.55925 2251 ft 227 kts 226°
2026-04-25 17:09 55.54935 12.54223 2511 ft 249 kts 223°
2026-04-25 17:09 55.53469 12.52430 3003 ft 262 kts 223°
2026-04-25 17:10 55.51950 12.50595 3804 ft 266 kts 223°
2026-04-25 17:10 55.50411 12.48739 4660 ft 269 kts 222°
2026-04-25 17:10 55.48855 12.46855 5452 ft 272 kts 222°
2026-04-25 17:10 55.47286 12.44951 6261 ft 276 kts 222°
2026-04-25 17:11 55.45700 12.43024 7046 ft 278 kts 223°
2026-04-25 17:11 55.44105 12.41085 7855 ft 279 kts 223°
2026-04-25 17:11 55.42501 12.39133 8654 ft 281 kts 223°
2026-04-25 17:11 55.40885 12.37167 9445 ft 284 kts 223°
2026-04-25 17:12 55.39258 12.35188 10151 ft 288 kts 224°
2026-04-25 17:12 55.37554 12.33099 10366 ft 310 kts 224°
2026-04-25 17:12 55.35722 12.30856 10582 ft 331 kts 223°
2026-04-25 17:12 55.33796 12.28516 11075 ft 341 kts 223°
2026-04-25 17:13 55.31824 12.26138 11773 ft 344 kts 223°